Location: Aboncourt
(47.7710°N, 5.9826°E)
Time: 03:11:05
(UTC+00:00)

ERS-1 Rocket - Pass Details

Date: 05 July 2020
Orbit: 752 x 758 km, 98.5° (Epoch: 03 August)

Event Time Altitude Azimuth Distance (km) Brightness Sun altitude
Exits shadow 20:56:51 13° 158° (SSE) 2,103 4.7 -10.5°
Maximum altitude 21:01:25 79° 74° (ENE) 780 3.0 -11.0°
Drops below altitude 10° 21:06:29 10° 348° (NNW) 2,298 6.6 -11.5°
Sets 21:08:47 0° 347° (NNW) 3,227 7.6 -11.7°
